[[{"header":{"parameterUnit":"m.s-1","parameterCategory":1,"la1":30.2991,"la2":30.254,"lo1":-89.0895,"lo2":-89.0444,"dy":0.0017,"dx":0.0017,"nx":28,"ny":28,"refTime":"2024-06-28T21:00:00:Z","depth":0,"parameterNumber":2,"parameterNumberName":"U-component_of_WINDS"},"data":[0,0,0,0,0,0,0,0,0,0,0,0,0,0,0,0,0,0,0,0,0,0,0,0,0,0,0,0,0,0,0,0,0,0,0,0,0,0,0,0,0,0,0,0,0,0,0,0,0,0,0,0,0,0,0,0,0,0,-0.5138,-0.5137,0,-0.5039,-0.5038,-0.5037,-0.4937,-0.4935,-0.4934,-0.4933,-0.4831,-0.4829,-0.4828,0,0,0,0,0,0,0,0,0,0,0,0,0,-0.524,-0.5238,-0.5138,-0.5137,-0.5136,-0.5039,-0.5038,-0.5036,-0.4937,-0.4935,-0.4934,-0.4932,-0.4831,-0.483,-0.4828,0,0,0,0,0,0,0,0,0,0,0,0,0,-0.5174,-0.5238,-0.5138,-0.5074,-0.5067,-0.5039,-0.5038,-0.5036,-0.4937,-0.4935,-0.4933,-0.4931,-0.4832,-0.483,-0.4828,-0.4855,0,0,-0.4821,-0.482,0,0,0,0,0,0,0,0,-0.5178,-0.517,-0.5085,-0.5079,-0.5071,-0.4998,-0.5036,-0.4975,-0.4938,-0.4987,-0.4933,-0.493,-0.4888,-0.4881,-0.4867,-0.485,-0.4845,-0.4821,-0.4819,-0.4818,-0.4818,0,0,0,0,0,0,0,-0.5182,-0.5174,-0.5099,-0.5084,-0.5075,-0.505,-0.5039,-0.5024,-0.495,-0.4982,-0.4975,-0.4964,-0.4884,-0.4869,-0.4864,-0.4844,-0.4821,-0.4819,-0.4817,-0.4817,-0.4843,-0.4845,0,0,0,0,0,0,-0.5197,-0.5178,-0.5102,-0.5096,-0.512,-0.505,-0.5037,-0.5024,-0.495,-0.4937,-0.4966,-0.496,-0.4874,-0.4867,-0.486,-0.4886,-0.4818,-0.4816,-0.4815,-0.4841,-0.4843,-0.4846,0,0,0,0,0,0,-0.5199,-0.5191,-0.5106,-0.5135,-0.5122,-0.505,-0.5036,-0.5023,-0.5008,-0.4938,-0.4924,-0.4965,-0.4872,-0.4863,-0.4856,-0.4881,-0.4815,-0.4813,-0.4839,-0.4842,-0.4844,-0.4939,0,0,0,0,0,0,-0.5203,-0.5192,-0.5202,-0.5136,-0.5121,-0.5105,-0.5038,-0.5022,-0.5005,-0.4996,-0.4933,-0.4921,-0.487,-0.486,-0.4854,-0.4877,-0.4812,-0.4836,-0.484,-0.4843,-0.4933,-0.4945,-0.4955,0,0,0,0,0,-0.5207,-0.5233,-0.5203,-0.5195,-0.5132,-0.5106,-0.5098,-0.5039,-0.5007,-0.5016,-0.4971,-0.4923,-0.488,-0.486,-0.4853,-0.4875,-0.4834,-0.4839,-0.4843,-0.4929,-0.4943,-0.4955,0,0,0,0,0,0,-0.5304,-0.5223,-0.5189,-0.5195,-0.5158,-0.509,-0.5099,-0.5056,-0.5028,-0.502,-0.4948,-0.4935,-0.4937,-0.4905,-0.4885,-0.4897,-0.485,-0.4853,-0.4918,-0.493,-0.4941,-0.4948,-0.481,0,0,0,0,0,-0.5326,-0.5312,-0.5242,-0.5254,-0.5237,-0.5172,-0.5158,-0.5116,-0.5075,-0.5059,-0.5013,-0.4976,-0.4953,-0.494,-0.4916,-0.4928,-0.4913,-0.494,-0.4951,-0.496,-0.4963,-0.4967,-0.4978,-0.486,-0.486,-0.486,0,0,-0.5371,-0.5326,-0.5321,-0.5272,-0.5239,-0.5226,-0.5159,-0.5149,-0.5138,-0.5057,-0.5048,-0.5014,-0.4966,-0.497,-0.4969,-0.4943,-0.4993,-0.4966,-0.4974,-0.4972,-0.4973,-0.4984,-0.4994,-0.4863,-0.4863,-0.4862,0,0,-0.5448,-0.5412,-0.5417,-0.5385,-0.5335,-0.5292,-0.5293,-0.5231,-0.5205,-0.5194,-0.5134,-0.512,-0.5083,-0.5052,-0.5031,-0.5096,-0.505,-0.509,-0.5145,-0.515,-0.5159,-0.5167,-0.519,-0.5199,-0.5093,-0.5094,-0.5094,0,-0.551,-0.5489,-0.5426,-0.5418,-0.5398,-0.5325,-0.533,-0.5301,-0.5247,-0.5234,-0.5207,-0.5159,-0.5122,-0.5117,-0.5132,-0.5118,-0.5117,-0.5096,-0.5163,-0.517,-0.5177,-0.5197,-0.5206,-0.5099,-0.5098,-0.5098,-0.5097,0,-0.5568,-0.5554,-0.5564,-0.5513,-0.5494,-0.5493,-0.5429,-0.5418,-0.5378,-0.5337,-0.5327,-0.528,-0.5245,-0.524,-0.5201,-0.5229,-0.5215,-0.5177,-0.5128,-0.5194,-0.5212,-0.522,-0.5106,-0.5104,-0.5103,-0.5101,0,0,-0.5703,-0.5616,-0.5621,-0.5597,-0.5536,-0.5524,-0.552,-0.5485,-0.5476,-0.5441,-0.5435,-0.5406,-0.5369,-0.5346,-0.5302,-0.5306,-0.536,-0.5267,-0.5265,-0.5285,-0.5388,-0.5417,-0.5427,-0.5329,-0.5331,-0.5332,-0.5391,0,-0.5768,-0.5756,-0.5698,-0.5703,-0.5688,-0.5618,-0.5614,-0.5577,-0.5538,-0.552,-0.5478,-0.5458,-0.5412,-0.5397,-0.5398,-0.5353,-0.5379,-0.5348,-0.5323,-0.5323,-0.5337,-0.5437,-0.5468,-0.5526,-0.5398,-0.5399,-0.54,0,-0.5843,-0.5812,-0.5815,-0.5754,-0.5746,-0.5744,-0.5707,-0.5691,-0.5647,-0.5618,-0.5593,-0.5544,-0.5534,-0.5489,-0.5476,-0.5456,-0.5442,-0.5418,-0.5419,-0.5414,-0.5365,-0.5434,-0.5544,-0.5553,-0.5411,-0.541,-0.5409,0,-0.5941,-0.59,-0.5896,-0.5877,-0.5807,-0.5806,-0.5777,-0.5731,-0.5713,-0.5681,-0.5669,-0.5637,-0.5619,-0.5595,-0.5539,-0.5511,-0.5531,-0.5482,-0.5507,-0.5509,-0.5514,-0.5515,-0.5623,-0.5507,-0.5507,-0.5506,-0.5506,0,-0.602,-0.6024,-0.5939,-0.5936,-0.5939,-0.5873,-0.5878,-0.5841,-0.5801,-0.579,-0.5727,-0.5719,-0.5645,-0.5627,-0.5583,-0.5578,-0.5571,-0.5547,-0.5535,-0.5553,-0.5556,-0.5543,-0.5537,-0.5509,-0.5508,-0.5508,-0.5507,0,-0.6129,-0.6072,-0.6063,-0.5997,-0.598,-0.5985,-0.5928,-0.5923,-0.5881,-0.5868,-0.5861,-0.5795,-0.5771,-0.5712,-0.5673,-0.5643,-0.565,-0.5629,-0.5666,-0.5658,-0.5687,-0.5685,-0.579,-0.5801,-0.5678,-0.568,-0.5681,0,-0.6183,-0.6185,-0.6119,-0.6107,-0.608,-0.6062,-0.6044,-0.5979,-0.5963,-0.5912,-0.5913,-0.5885,-0.5858,-0.5824,-0.5772,-0.5742,-0.5719,-0.5758,-0.5714,-0.5731,-0.5719,-0.5719,-0.5719,-0.5767,-0.5769,-0.577,-0.5771,0,-0.6285,-0.6257,-0.6233,-0.62,-0.618,-0.615,-0.6117,-0.6111,-0.6038,-0.6023,-0.5998,-0.5978,-0.5938,-0.591,-0.5872,-0.5841,-0.5794,-0.5786,-0.579,-0.5808,-0.5829,-0.5817,-0.5692,-0.5784,-0.5782,-0.5781,-0.5781,-0.578,-0.6368,-0.6366,-0.6319,-0.6295,-0.6263,-0.6234,-0.6225,-0.6182,-0.616,-0.6122,-0.6085,-0.6064,-0.6019,-0.5963,-0.5935,-0.5918,-0.5893,-0.59,-0.5901,-0.5904,-0.5912,-0.5832,-0.591,-0.591,-0.591,-0.5909,-0.5909,0,-0.6467,-0.6433,-0.6411,-0.6367,-0.6348,-0.6305,-0.6266,-0.6253,-0.6235,-0.6197,-0.6172,-0.6143,-0.6116,-0.6062,-0.603,-0.6026,-0.6004,-0.602,-0.602,-0.6013,-0.5935,-0.5934,-0.6039,-0.6039,-0.6039,-0.6039,-0.6038,-0.6038,-0.6516,-0.651,-0.6476,-0.6454,-0.6419,-0.6398,-0.6379,-0.6352,-0.6321,-0.6291,-0.6268,-0.6233,-0.6189,-0.6153,-0.6126,-0.6111,-0.6102,-0.6125,-0.6103,-0.6031,-0.6019,-0.6007,-0.6006,-0.6124,-0.6124,-0.6182,-0.6183,-0.6183]},{"header":{"parameterUnit":"m.s-1","parameterCategory":1,"la1":30.2991,"la2":30.254,"lo1":-89.0895,"lo2":-89.0444,"dy":0.0017,"dx":0.0017,"nx":28,"ny":28,"refTime":"2024-06-28T21:00:00:Z","depth":0,"parameterNumber":3,"parameterNumberName":"V-component_of_WINDS"},"data":[0,0,0,0,0,0,0,0,0,0,0,0,0,0,0,0,0,0,0,0,0,0,0,0,0,0,0,0,0,0,0,0,0,0,0,0,0,0,0,0,0,0,0,0,0,0,0,0,0,0,0,0,0,0,0,0,0,0,4.2373,4.2373,0,4.242,4.2421,4.2421,4.2425,4.2425,4.2424,4.2424,4.2468,4.247,4.2472,0,0,0,0,0,0,0,0,0,0,0,0,0,4.2282,4.2284,4.2373,4.2374,4.2374,4.242,4.2421,4.2422,4.2425,4.2425,4.2424,4.2423,4.2468,4.247,4.2472,0,0,0,0,0,0,0,0,0,0,0,0,0,4.2325,4.2284,4.2373,4.2382,4.2383,4.242,4.2421,4.2422,4.2425,4.2425,4.2424,4.2423,4.2467,4.247,4.2472,4.2503,0,0,4.248,4.2481,0,0,0,0,0,0,0,0,4.2322,4.2328,4.238,4.2381,4.2383,4.2416,4.2405,4.2449,4.2426,4.2409,4.2424,4.2423,4.2451,4.2455,4.2466,4.2505,4.2507,4.248,4.2481,4.2483,4.2483,0,0,0,0,0,0,0,4.2319,4.2326,4.2392,4.238,4.2382,4.2382,4.2387,4.2414,4.2434,4.2411,4.2411,4.2417,4.2452,4.2463,4.2467,4.2507,4.248,4.2482,4.2484,4.2485,4.2574,4.2575,0,0,0,0,0,0,4.2315,4.2323,4.239,4.2393,4.235,4.2384,4.239,4.2406,4.2434,4.2437,4.2417,4.2417,4.2459,4.2464,4.2468,4.2506,4.2483,4.2485,4.2486,4.2573,4.2574,4.2575,0,0,0,0,0,0,4.2313,4.2321,4.2388,4.2358,4.2367,4.2387,4.2405,4.2407,4.2419,4.2439,4.2442,4.2425,4.2459,4.2465,4.2494,4.2508,4.2486,4.2488,4.2572,4.2574,4.2575,4.2582,0,0,0,0,0,0,4.2311,4.232,4.2333,4.2359,4.2369,4.2415,4.2405,4.2409,4.2423,4.2423,4.2447,4.245,4.2459,4.2491,4.2497,4.2511,4.249,4.2571,4.2573,4.2574,4.258,4.2583,4.2585,0,0,0,0,0,4.2307,4.2332,4.2334,4.2342,4.2385,4.2415,4.2421,4.2431,4.2424,4.2437,4.245,4.2449,4.2505,4.2494,4.2501,4.2515,4.257,4.2572,4.2574,4.2579,4.2582,4.2585,0,0,0,0,0,0,4.2306,4.2336,4.2338,4.2372,4.2391,4.2416,4.2432,4.2434,4.2455,4.2454,4.2464,4.247,4.2499,4.251,4.2497,4.2546,4.2537,4.254,4.2538,4.2542,4.2544,4.254,4.2492,0,0,0,0,0,4.231,4.2333,4.2357,4.2385,4.2395,4.2412,4.2425,4.2432,4.2452,4.246,4.2475,4.2493,4.2515,4.2529,4.255,4.2582,4.2587,4.2595,4.2598,4.26,4.2603,4.2621,4.2625,4.2582,4.2582,4.2582,0,0,4.2317,4.2337,4.235,4.2385,4.2401,4.2424,4.2418,4.2443,4.246,4.2463,4.2492,4.2504,4.2525,4.2556,4.2571,4.2566,4.2616,4.2603,4.2604,4.2606,4.2623,4.2627,4.2631,4.2583,4.2583,4.2583,0,0,4.2343,4.236,4.2386,4.2402,4.2427,4.2438,4.2444,4.2468,4.2477,4.2507,4.251,4.2529,4.2566,4.2582,4.2594,4.2627,4.2627,4.2633,4.2646,4.2663,4.2667,4.267,4.2681,4.2685,4.2636,4.2636,4.2636,0,4.2349,4.2386,4.2398,4.2423,4.2438,4.2443,4.2468,4.2483,4.2512,4.2522,4.2517,4.2565,4.2579,4.2614,4.2622,4.2632,4.2639,4.263,4.2665,4.2669,4.2672,4.2683,4.2687,4.2636,4.2636,4.2636,4.2636,0,4.2392,4.2417,4.2434,4.2464,4.2481,4.2505,4.252,4.2536,4.2541,4.2552,4.2583,4.2601,4.2626,4.2634,4.2639,4.267,4.2666,4.2663,4.2654,4.2676,4.2687,4.2691,4.2637,4.2637,4.2637,4.2637,0,0,4.2417,4.2455,4.2461,4.2475,4.2503,4.2521,4.2546,4.2572,4.2585,4.2605,4.2626,4.2657,4.2655,4.2669,4.2676,4.2691,4.2716,4.2686,4.2687,4.2691,4.2751,4.2753,4.2758,4.2716,4.2717,4.2718,4.2749,0,4.2446,4.2492,4.2504,4.2542,4.2565,4.2571,4.2592,4.2611,4.2622,4.2643,4.2655,4.2677,4.2672,4.2681,4.2696,4.2709,4.2728,4.2707,4.2735,4.2735,4.2729,4.2763,4.2765,4.2794,4.2753,4.2754,4.2754,0,4.2486,4.2509,4.255,4.2575,4.2585,4.2605,4.2629,4.2649,4.267,4.2677,4.2694,4.2699,4.2724,4.2714,4.2748,4.2734,4.2746,4.2754,4.2755,4.2758,4.2746,4.2767,4.2803,4.2807,4.2761,4.276,4.276,0,4.2501,4.2541,4.2571,4.2583,4.2613,4.2627,4.264,4.266,4.2675,4.2697,4.2706,4.273,4.2742,4.276,4.2771,4.2762,4.2804,4.2795,4.2811,4.281,4.2819,4.2818,4.2858,4.2827,4.2827,4.2827,4.2826,0,4.2532,4.2556,4.2578,4.2597,4.2625,4.2638,4.2664,4.2677,4.2696,4.2716,4.2722,4.2741,4.2754,4.2775,4.2783,4.2811,4.2816,4.2822,4.2824,4.2822,4.2821,4.2829,4.2828,4.2828,4.2827,4.2827,4.2827,0,4.2552,4.2568,4.2601,4.2628,4.2635,4.2654,4.2676,4.2694,4.2706,4.2732,4.2738,4.2756,4.2781,4.2794,4.2824,4.283,4.286,4.2861,4.2853,4.2854,4.2869,4.2868,4.2916,4.2923,4.2887,4.2887,4.2887,0,4.2571,4.259,4.262,4.2634,4.2648,4.2671,4.2687,4.2701,4.2716,4.2743,4.2757,4.2782,4.2803,4.2841,4.2856,4.2879,4.2881,4.2896,4.2884,4.2881,4.2881,4.288,4.2882,4.2898,4.2898,4.2899,4.2899,0,4.2602,4.261,4.2633,4.2659,4.2678,4.2698,4.2719,4.273,4.2747,4.2764,4.279,4.2806,4.2838,4.2862,4.2887,4.2899,4.2902,4.2903,4.2908,4.2905,4.29,4.2903,4.2859,4.2901,4.2901,4.2901,4.2901,4.2901,4.2623,4.2641,4.2664,4.269,4.2707,4.2726,4.2744,4.2759,4.2781,4.2809,4.2815,4.2842,4.2863,4.2896,4.2909,4.293,4.2927,4.2934,4.2936,4.2937,4.2938,4.2897,4.2934,4.2934,4.2934,4.2934,4.2934,0,4.2655,4.267,4.2694,4.2723,4.2743,4.2745,4.2768,4.2784,4.2809,4.2828,4.2849,4.2879,4.2903,4.292,4.2945,4.2958,4.296,4.2964,4.2963,4.2966,4.2939,4.2933,4.2962,4.2962,4.2962,4.2962,4.2962,4.2962,4.2674,4.2704,4.2714,4.2753,4.2768,4.2796,4.2808,4.2826,4.2842,4.2875,4.2896,4.2908,4.2927,4.2953,4.2975,4.2979,4.2988,4.2992,4.2996,4.2971,4.2968,4.2965,4.2959,4.2994,4.2994,4.3022,4.3022,4.3022]}]]